Location: Hungerford
(51.4167°N, 1.5167°W)
Time: 08:34:09
(UTC+00:00)

Cosmos 1048 Rocket - Pass Details

Date: 24 January 2021
Orbit: 744 x 791 km, 74.0° (Epoch: 24 February)

Event Time Altitude Azimuth Distance (km) Brightness Sun altitude
Rises 19:24:51 0° 336° (NNW) 3,198 7.5 -25.1°
Reaches altitude 10° 19:27:15 10° 340° (NNW) 2,271 6.7 -25.4°
Enters shadow 19:31:13 50° 7° (N) 948 4.3 -26.0°
